CAPE
670 677 271 242 527 89 64 77 110 196 282 172 46 113 355 297 214 149 19 2 151 110 140 140 146 181 293 312 532 424 165 73 5 583 1179 1267 1133 1276 1364 1574 1578 1568 1541 1557 1487 1214 1261 1458 1656
629 263 129 227 156 28 53 106 73 288 365 236 251 330 256 151 16 9 1 63 118 107 77 58 170 164 276 316 399 529 176 207 204 222 545 1232 1318 1304 1341 1343 1601 1252 951 930 864 1204 1299 1355 1737
358 202 531 306 77 52 45 78 78 153 95 200 147 1 0 12 13 15 16 62 60 99 53 21 57 26 84 133 302 368 165 161 272 244 500 947 1288 1397 1497 1636 1645 1515 1643 1833 1736 1809 1842 1939 1935
179 268 482 295 91 142 101 57 29 6 0 16 2 0 0 8 10 10 10 32 53 59 54 59 18 54 19 56 116 168 159 168 213 137 254 440 993 1476 1480 1612 1526 1606 1511 1503 1497 1205 1271 1657 1595
207 152 269 116 149 144 64 8 0 0 2 0 0 0 0 0 0 0 12 20 69 37 108 32 48 75 46 12 9 68 145 150 120 164 232 341 615 1281 1529 1764 1697 1777 1302 1090 1037 1204 1475 1114 720
206 375 220 49 132 63 89 30 0 0 0 0 0 0 0 0 0 4 24 22 38 37 12 65 27 24 51 37 8 6 103 135 95 152 273 581 809 1121 1466 1683 1432 1474 1434 1297 1145 1144 838 411 673
153 190 198 131 117 151 117 12 0 0 0 0 0 0 0 0 0 1 21 24 21 7 31 38 36 22 8 28 41 1 84 91 67 141 354 879 1064 1035 1101 932 811 820 779 699 713 722 556 629 903
253 262 224 198 97 132 76 4 0 0 0 0 2 0 0 0 0 1 17 102 72 0 0 19 36 54 147 40 133 134 16 78 159 311 975 960 1182 1373 1151 1080 1132 1018 995 1042 899 708 666 681 794
94 134 113 184 139 151 60 1 33 14 0 94 183 0 0 0 20 50 39 62 105 205 68 6 43 98 132 265 342 612 535 234 281 568 538 741 408 337 1230 1185 1299 1302 1282 1221 799 574 532 824 620
71 204 147 311 330 315 197 11 66 7 60 108 9 2 0 21 121 126 87 76 163 248 299 265 114 331 353 620 389 697 563 554 649 738 663 486 530 601 399 723 1461 1273 1238 1078 956 788 831 644 675
105 120 168 337 321 249 260 77 100 51 79 44 17 0 28 106 279 173 93 83 156 220 306 338 350 401 542 913 879 613 733 624 550 712 535 557 378 350 388 546 841 878 670 957 837 1045 1091 1102 1172
3 56 40 171 261 445 385 187 123 68 155 46 33 36 86 126 122 147 153 72 144 243 381 516 581 647 463 521 474 333 275 327 312 624 947 683 332 545 600 604 734 1128 1586 1801 1815 1044 1618 1854 1868
34 33 44 164 339 485 450 275 244 105 152 36 62 66 122 150 333 344 136 99 130 203 286 361 506 716 760 753 319 433 403 344 408 499 821 484 379 611 875 1233 1497 1774 1660 1552 1676 1605 1634 1785 1483
134 108 21 100 121 339 383 299 142 186 99 46 52 108 146 171 248 449 437 202 77 123 219 370 473 649 762 440 818 732 672 759 873 743 913 1191 959 1543 1404 1531 1572 1617 1697 1687 1748 1954 1653 1303 915
446 184 156 31 3 200 144 122 281 207 168 35 84 144 211 297 322 427 566 492 207 125 216 353 441 383 464 542 989 915 923 838 884 859 1404 1539 1642 1688 1519 1404 1555 1254 1776 2135 1666 1681 1240 975 710
362 126 145 141 65 143 90 13 283 307 219 90 109 161 232 376 402 491 481 537 490 242 444 464 192 202 238 531 909 861 914 837 881 878 1025 1444 1917 1882 1590 1171 1145 1254 1505 1489 1383 1242 1102 1007 578
367 71 138 71 199 281 18 13 113 328 331 224 110 200 318 430 521 556 525 589 599 621 581 621 434 344 330 784 783 967 1017 769 989 877 766 1366 1694 1784 1500 986 780 996 1223 1422 1236 1222 1433 1170 1088
123 104 207 138 160 190 34 22 36 130 386 249 126 189 337 447 535 558 614 581 661 703 720 624 556 779 897 734 947 750 720 722 883 825 676 1016 1370 1796 1313 959 727 495 679 1178 1359 1799 1543 1212 1094
145 65 125 410 458 239 192 200 134 114 408 279 195 165 225 379 514 634 652 727 788 791 715 697 563 740 996 747 533 535 471 679 825 1024 1274 1582 1362 1809 1710 830 275 231 291 1297 1768 1583 1196 840 613
137 46 207 580 609 327 351 268 247 111 39 321 343 239 226 233 362 551 660 732 857 906 844 478 428 877 1099 719 713 647 724 757 992 1117 1527 1779 1753 2018 1244 867 481 702 345 654 1514 1610 1105 693 515
35 8 87 275 546 536 308 227 395 330 55 42 122 392 300 262 332 436 641 745 871 940 1059 704 475 830 983 685 863 1120 1083 1174 985 1112 1073 1386 1401 1639 1585 1565 591 631 724 601 1224 849 1211 667 680
12 3 20 316 204 179 302 30 273 398 278 307 212 296 449 533 450 486 631 831 782 925 1140 911 857 824 1058 1163 908 812 600 476 575 693 872 1079 1653 1533 1436 623 439 432 474 918 1071 1223 1446 1231 743
15 86 133 240 78 39 199 47 177 391 445 382 357 371 472 474 572 502 576 812 751 868 1010 931 1119 876 767 1040 1086 1081 627 507 739 681 1322 1086 1291 1224 1371 670 252 857 1123 1343 1969 2176 1823 1348 1108
109 182 244 246 97 46 22 2 31 78 252 463 573 556 472 461 575 626 561 726 818 809 965 900 1220 1164 1139 1071 1238 1120 818 844 665 617 842 723 860 1143 1532 1464 1334 1040 1475 1964 2017 1860 1457 1734 1515
79 28 27 36 79 41 12 0 27 65 291 339 356 381 503 480 514 546 360 599 840 810 931 982 1216 1339 1269 1200 978 1155 906 917 823 609 270 680 590 653 1137 1633 1825 1481 1692 1856 1943 1930 1657 1554 1301
18 48 16 6 7 22 22 1 31 40 338 375 330 312 367 390 574 596 672 605 864 814 900 1016 1187 1478 1255 1179 1090 986 1237 387 469 639 313 590 456 644 836 1568 1575 1843 1833 1833 1916 1497 1433 1387 1268
7 0 0 0 0 0 13 0 1 40 194 159 118 206 348 471 568 494 613 652 724 785 887 948 1071 1462 1310 1070 1071 1111 1311 942 694 753 1023 647 862 903 1518 1442 1472 1622 1732 1747 1734 1409 1263 1300 1264
0 2 3 2 1 17 18 0 1 5 32 63 145 328 499 539 534 738 604 513 602 745 850 959 1012 1214 1312 1103 1023 878 1001 1231 1017 1149 862 929 1068 1463 1210 1422 1295 1096 1281 2023 1791 1077 1114 1087 1070
0 0 0 2 3 7 10 15 0 0 32 73 157 166 196 227 414 589 973 464 586 686 768 761 918 1005 1208 1098 975 936 898 920 1123 1012 1121 1097 1076 1244 1469 1313 1275 1247 1180 1399 1627 1235 952 956 1120
10 3 18 16 34 19 0 0 0 18 92 145 124 98 77 34 297 448 939 778 552 613 633 620 796 924 962 980 1097 1071 1116 998 768 985 978 1001 1092 1174 1350 1434 1574 1692 1358 1579 1580 941 839 1027 1136
CIN
-89 -65 -111 -105 -6 -8 -1 0 -1 -2 -1 -4 -15 -13 -1 -7 -1 -2 -62 -2 -23 -1 0 0 -1 -4 -1 -4 -1 -1 -7 -19 -6 -12 0 0 0 0 0 0 0 0 0 0 0 0 0 0 0
-35 -121 -141 -71 -10 -4 -2 -1 -5 -2 -1 -2 -3 -1 -1 -7 -46 -23 -2 -19 -5 -5 -1 -1 -7 -3 -6 -3 -6 0 -9 -7 -10 -5 -5 0 0 0 0 0 0 0 -1 -1 -1 -1 -1 0 0
-93 -146 -43 -7 -1 -3 -1 -1 -13 -3 -4 -1 -5 -4 0 0 -1 -1 -2 -29 -45 -23 0 -11 -10 -31 -19 -20 -11 -6 -10 -12 -4 -3 -3 -3 0 0 0 0 0 0 0 -1 0 0 0 0 0
-123 -111 -69 -2 -1 0 -2 -3 -12 -15 0 -28 0 0 0 0 -1 -2 -1 -1 -4 -2 -1 -4 -15 -11 -10 -34 -28 -23 -24 -23 -20 -10 -7 -8 -2 0 0 0 0 0 0 0 -1 -11 -8 -2 -4
-136 -90 -4 -1 -1 -2 -4 -10 0 0 -5 0 0 0 0 0 0 0 -1 -1 -1 -2 -4 -7 -10 -12 -23 -33 -50 -39 -41 -39 -26 -7 -12 -6 -5 -2 0 0 0 0 -5 -16 -20 -15 -7 -15 -35
-48 -44 -10 -8 -1 -25 -3 -14 0 0 0 0 0 0 0 0 0 -3 -2 -4 -2 -2 -7 -8 -13 -11 -9 -28 -54 -27 -48 -43 -40 -17 -3 -3 -6 -3 0 0 0 0 -2 -12 -24 -18 -32 -90 -75
-45 -21 -7 -1 -1 -6 -11 -25 0 0 0 0 0 0 0 0 0 -3 -1 -3 -3 -48 -38 -31 -22 -5 -13 -37 -33 -67 -53 -46 -74 -7 -8 -4 0 0 0 0 -7 -21 -38 -47 -38 -41 -79 -81 -59
-62 -33 -1 -7 -1 -1 -16 -32 0 0 0 0 -1 0 0 0 0 -2 -30 -2 -2 0 0 -32 -37 -25 -17 -38 -30 -21 -71 -58 -22 -6 0 -1 -1 0 -1 -6 -6 -22 -30 -25 -38 -60 -84 -106 -103
-86 -3 -1 -1 -2 -10 -22 -8 -25 -20 0 -5 -23 0 0 0 -32 -10 -12 -2 -3 -4 -6 -68 -53 -22 -20 -7 -1 0 -6 -14 -9 -4 -13 -14 -1 -1 -1 -12 -5 -8 -16 -27 -58 -101 -127 -95 -122
-21 -1 -2 -1 -1 -2 -14 -10 -4 -7 -2 -13 -49 -11 0 -59 -12 -1 -2 -1 -1 -3 -1 -2 -23 -2 -6 -1 -14 -8 -3 -2 -3 -10 -12 -2 -1 -3 -9 -17 -17 -33 -37 -51 -60 -79 -82 -96 -15
-29 -6 -9 -3 -17 -28 -6 -9 -6 -1 -2 -4 -24 0 -51 -20 -1 -1 -1 -1 -3 -3 -11 -3 -7 -2 -1 -1 -1 -35 -16 0 -3 -1 -1 0 -1 -4 -5 -12 -6 -12 -63 -4 -26 -30 -5 -2 -2
-67 -37 -62 -20 -21 -6 -2 -7 -6 -2 -1 -16 -23 -22 -15 -4 -1 -1 -1 -2 -8 -17 -4 -1 -2 -1 -12 -1 -1 -1 -1 -1 -1 -3 0 0 -3 -12 -2 -2 -18 -12 -1 -4 -1 -1 -4 -8 -10
-47 -29 -37 -24 -15 -19 -17 -2 -2 -2 -6 -21 -26 -32 -13 -2 -2 -1 -2 -5 -6 -10 -5 -6 -1 -1 -1 -1 -1 -1 -1 -1 -1 -1 -7 -5 -6 -2 -1 -8 0 0 -1 -1 -1 -2 -5 -9 -5
-26 -46 -81 -54 -56 -33 -1 -9 -5 -4 -7 -18 -25 -18 -5 -9 -1 -2 -1 -2 -13 -7 -9 -5 -1 -2 -1 -1 -1 -1 0 0 0 0 -1 -10 -1 0 -1 -2 -1 0 -3 -3 -1 -3 -2 -3 -2
-24 -36 -43 -72 -91 -27 -40 -18 -1 -1 -1 -6 -9 -6 -9 -2 -3 -1 -1 0 -3 -22 -13 -3 -5 -16 -15 -9 -1 0 0 -1 0 0 -8 -3 -1 -10 -10 -3 0 -11 -12 -11 -4 -6 -4 -1 -2
-5 -24 -3 -5 -41 -29 -35 -9 -3 -3 -2 -2 -1 -1 -4 -1 -1 -2 -2 -1 -1 -4 -7 -4 -10 -22 -20 -2 -1 -2 0 0 0 -1 -1 -2 -5 -20 -13 -5 -7 -18 -9 -3 -1 -2 0 -1 -7
-1 -5 -6 -31 -41 -8 -53 -31 -13 -21 -6 -2 -2 -2 -2 -3 -5 -3 -4 -1 -2 -2 -8 -6 -8 -8 -10 -7 0 -1 -1 -1 0 -1 0 -11 -4 -13 -14 -18 -19 -34 -13 -2 -7 -3 -7 -2 -2
-12 -13 -7 -8 -27 -28 -47 -13 -25 -26 -10 -1 -3 -4 -1 -2 -2 -2 -4 -5 -2 -6 -9 -2 -7 0 -1 -4 -10 -1 -1 -1 -1 0 0 -12 -1 -9 -22 -19 -40 -51 -21 -2 -5 -23 -20 -20 -21
-15 -30 -22 -17 -17 -37 -22 -1 -7 -16 -17 -2 -1 -2 -4 -1 -1 -2 -2 -6 -9 -18 -21 -10 -10 -5 -3 -4 -2 -1 -1 -1 -1 0 -8 -7 -5 -5 -15 -23 -54 -73 -69 -24 -21 -16 -23 -12 -33
-37 -45 -18 -31 -26 -21 -9 -7 -6 -46 -55 -27 -2 -1 -4 -6 -2 -1 -3 -2 -13 -18 -29 -44 -27 -11 -11 -9 -7 -1 -1 0 -2 -1 -3 0 -2 -2 -12 -39 -53 -56 -56 -64 -30 -28 -20 -20 -45
-2 -3 -44 -6 -25 -20 -21 -10 -21 -5 -28 -50 -40 -6 -5 -2 -3 -1 -2 -3 -10 -21 -33 -44 -47 -21 -13 -7 -6 -10 -5 -4 -5 -5 -2 -1 -6 0 -8 -15 -64 -65 -56 -33 -25 -40 -36 -7 -26
-4 -7 -7 -11 -12 -11 -18 -10 -13 -12 -17 -23 -30 -33 -12 -3 -1 -2 -2 -5 -8 -17 -31 -41 -43 -33 -12 -13 -2 -1 -2 -1 -3 -2 -1 -1 -3 0 0 -38 -80 -94 -54 -40 -21 -19 -15 -21 -1
-3 -81 -31 -13 -3 -2 -4 -4 -10 -20 -12 -21 -30 -27 -11 -7 -1 -3 -2 -4 -2 -9 -25 -35 -42 -43 -14 -14 -8 -5 -7 -4 -2 -1 -2 -2 -12 -8 -1 -35 -64 -30 -6 -22 -5 0 -6 -1 -3
-68 -21 -15 -11 -119 -2 -6 -3 -3 -3 -4 -20 -25 -33 -29 -20 -4 -3 -11 -6 -2 -7 -18 -25 -46 -49 -30 -23 -12 -4 -1 -4 -3 -2 -2 -2 -1 -1 -5 -11 -20 -28 -7 -1 0 -4 -11 -1 -2
-31 -4 -11 -24 -52 -7 -15 0 -5 -11 -28 -32 -41 -41 -48 -40 -24 -23 -70 -15 -12 -10 -22 -26 -39 -45 -32 -24 -20 -10 -8 -3 -1 -3 -13 -3 -2 -2 -1 -8 -11 -5 -12 -3 -1 0 -1 -1 -1
-4 -7 -4 -5 -3 -3 -26 -1 -4 -17 -34 -48 -55 -60 -58 -48 -33 -30 -25 -21 -23 -22 -25 -27 -37 -38 -35 -28 -26 -21 -7 -9 -2 -2 -7 -1 -2 -2 -1 -2 -2 -3 -6 -2 0 -1 0 0 0
-4 0 0 0 0 0 -4 0 -1 -40 -30 -38 -34 -49 -53 -52 -32 -23 -15 -17 -23 -27 -28 -31 -35 -43 -28 -31 -27 -22 -10 -20 -3 -1 0 -2 -2 -1 -1 -1 0 0 -1 -5 -1 -1 -2 0 -1
0 -6 -3 -4 -2 -2 -4 0 -3 -4 -20 -17 -23 -21 -33 -44 -45 -24 -30 -28 -13 -22 -23 -34 -34 -41 -35 -21 -18 -25 -16 -14 -8 -5 -10 -1 -1 -3 -2 -2 -2 -1 -1 0 -3 0 -1 -1 -1
0 0 0 -3 -2 -3 -2 -2 0 0 -23 -15 -27 -40 -47 -52 -28 -23 -5 -27 -17 -6 -10 -19 -28 -34 -40 -35 -25 -19 -16 -7 -7 -7 -5 -6 -7 -6 -4 -4 -2 -6 0 -1 -7 -7 -5 -2 -1
-34 -5 -4 -3 -6 -3 0 0 0 -38 -30 -25 -28 -45 -62 -71 -31 -20 -3 -2 -27 -16 -20 -12 -20 -32 -42 -34 -40 -37 -25 -15 -2 -4 -4 -12 -9 -6 -4 0 -1 -4 -2 -1 -7 -9 -2 -1 -1
Wind_Speed
18 19 18 17 16 17 22 21 20 19 16 13 10 13 11 13 15 13 9 8 11 11 7 5 5 5 5 7 7 8 7 9 7 5 4 4 7 10 13 13 12 11 6 12 11 13 16 17 16
19 18 16 16 15 19 21 21 19 17 16 15 12 11 13 13 13 10 9 6 10 9 7 6 6 6 4 7 7 7 8 8 5 5 4 4 7 10 9 9 9 7 16 13 17 20 22 18 12
20 17 16 15 19 20 21 21 20 18 17 14 14 12 13 13 10 10 10 11 8 8 9 6 7 6 5 7 7 8 7 6 6 6 5 3 9 9 6 7 13 16 12 11 14 13 5 12 11
18 17 16 17 20 20 21 21 20 19 17 14 15 15 11 11 11 10 14 13 13 13 7 8 6 8 3 4 8 8 6 7 6 5 7 3 6 8 13 11 28 20 17 10 3 7 19 17 13
16 16 16 18 20 20 21 21 19 18 17 18 17 17 14 14 15 17 16 12 12 12 9 8 8 6 3 3 5 7 6 6 6 6 6 2 10 28 28 26 26 25 26 25 24 24 20 17 14
15 14 10 15 18 20 20 20 20 19 19 20 22 21 14 16 16 16 15 13 15 16 13 8 8 9 4 2 4 5 7 7 5 9 18 27 27 27 25 27 28 28 27 26 26 24 20 17 16
15 11 11 12 16 18 18 19 21 21 20 18 19 19 17 18 15 15 15 15 19 18 17 13 10 13 5 1 7 3 4 4 5 12 8 14 21 22 27 26 28 27 26 24 23 21 19 18 17
11 11 7 10 15 16 19 19 20 21 19 19 18 18 21 18 18 18 21 19 19 23 23 16 11 8 6 2 10 2 3 6 13 19 18 20 20 23 28 28 22 23 21 21 21 20 20 19 18
10 11 14 6 12 15 18 20 19 18 21 15 12 21 21 21 20 20 19 20 20 20 23 23 12 19 13 13 21 24 23 24 26 22 20 23 24 26 24 8 21 17 18 19 20 20 20 19 19
18 13 8 9 8 14 18 19 20 21 21 19 19 17 22 23 23 21 19 18 21 19 22 18 26 28 27 23 22 23 24 24 22 21 20 21 19 16 19 19 21 19 20 21 21 20 19 19 18
17 10 6 6 8 13 14 21 16 22 20 19 23 23 24 24 23 23 24 24 22 20 22 26 25 27 28 26 26 23 22 23 21 20 21 19 22 23 21 22 23 22 21 22 21 20 19 16 15
18 10 6 7 9 9 13 5 19 18 9 19 25 24 24 26 25 24 24 24 19 25 25 26 25 25 25 25 24 23 23 23 21 19 20 19 21 20 18 16 16 19 18 18 18 18 16 16 15
20 8 7 9 10 10 9 21 12 19 10 22 25 27 27 26 25 24 17 22 27 26 24 25 25 25 25 25 24 22 19 21 19 20 17 17 17 17 17 14 15 15 16 17 17 17 15 15 15
19 5 14 14 13 12 11 18 20 13 19 24 25 26 26 25 25 23 24 27 26 25 24 16 22 25 24 23 24 22 20 18 19 18 14 15 16 16 12 11 14 14 15 16 15 15 15 14 14
20 14 8 13 17 17 20 18 12 3 18 23 25 25 24 25 25 24 25 27 24 22 20 15 18 24 24 24 24 21 21 18 16 15 16 16 16 11 11 12 15 14 15 16 16 16 16 15 14
18 17 12 11 18 18 19 17 17 21 21 23 25 24 24 24 24 24 24 25 22 22 21 20 15 9 22 22 22 21 18 18 15 16 17 16 16 15 14 15 15 14 16 16 15 15 15 15 14
16 17 11 10 20 15 12 17 23 22 24 24 26 23 24 23 24 24 24 23 21 22 22 22 24 18 21 21 21 20 17 18 17 17 17 15 17 17 16 15 16 16 17 16 16 15 15 14 13
14 16 17 17 16 17 17 17 13 16 20 25 26 26 24 23 24 23 23 23 21 22 23 24 26 22 22 21 21 21 20 19 19 19 19 18 17 18 18 18 17 18 18 18 16 16 15 14 11
16 16 15 16 16 15 19 12 20 19 21 22 22 25 25 24 22 24 24 22 23 23 21 23 27 28 26 24 24 24 24 21 21 20 19 18 19 19 19 19 18 18 19 19 18 18 16 14 13
19 17 14 15 15 14 15 14 7 7 16 18 18 24 26 24 24 23 25 24 23 23 21 23 24 28 28 25 25 23 22 22 19 19 19 19 19 20 19 19 20 18 19 19 20 19 18 16 14
17 18 14 14 12 12 10 9 19 20 13 17 20 28 27 27 25 21 22 23 23 23 22 20 23 26 28 25 24 23 21 21 22 21 23 21 20 20 19 19 20 20 18 18 18 18 18 17 14
19 17 13 11 11 14 13 13 11 11 15 17 20 26 28 28 27 25 17 22 23 24 22 16 21 25 29 24 25 26 26 25 23 21 20 20 20 19 19 18 17 18 19 17 16 16 17 17 17
18 15 12 11 15 18 10 19 11 11 7 13 20 23 27 29 29 17 15 13 24 20 22 14 18 22 26 29 28 26 27 25 23 21 18 20 19 20 17 15 14 17 17 16 18 17 17 17 16
10 12 14 13 17 12 12 20 11 12 16 13 10 13 22 29 31 26 11 4 4 14 19 12 18 19 24 27 30 29 26 25 24 23 22 21 21 16 14 14 14 14 17 17 19 18 18 18 17
14 14 16 15 18 17 16 20 21 14 13 14 15 16 16 8 22 30 16 27 2 6 19 9 17 21 25 26 30 30 29 26 24 23 23 22 20 21 6 19 18 17 17 17 19 20 20 19 18
17 22 23 20 21 16 16 19 17 16 13 14 16 18 18 15 4 20 19 8 6 4 4 14 13 22 21 27 29 30 29 28 26 26 25 24 23 22 14 12 20 21 21 20 19 20 20 19 19
13 22 19 21 18 24 17 19 17 14 13 15 18 17 17 17 18 20 30 9 8 13 20 30 8 14 22 25 26 30 30 30 28 25 24 27 24 22 21 22 23 24 24 23 22 21 21 20 20
23 13 16 13 20 21 15 22 22 19 17 14 17 17 18 18 18 19 22 9 16 18 25 27 28 15 10 27 16 28 31 31 31 26 28 25 23 23 23 24 20 23 24 24 24 22 22 22 21
12 16 20 23 21 25 25 21 18 21 13 12 15 16 17 18 20 21 22 16 18 20 22 25 28 28 26 8 14 9 13 32 33 30 28 27 24 24 23 23 25 23 24 25 25 23 23 23 23
22 26 24 25 17 20 26 28 16 15 13 13 12 15 16 18 18 19 19 17 13 20 23 24 26 27 28 28 24 16 5 11 8 30 28 25 24 24 25 25 25 26 23 23 24 23 24 24 24
Wind_Direction
96 117 124 138 128 112 42 44 56 53 34 345 344 268 313 300 281 300 286 280 72 69 44 16 17 346 317 15 11 8 3 25 7 310 306 336 29 40 54 55 45 40 15 41 36 40 47 48 43
138 151 147 144 135 68 43 45 14 5 33 51 7 336 306 312 313 13 22 19 67 53 47 27 26 9 333 18 4 359 9 19 358 316 283 295 32 48 42 45 41 27 54 47 60 62 66 54 29
148 154 138 149 58 32 49 43 40 46 42 42 24 314 302 320 351 313 50 65 50 42 49 30 25 19 345 16 360 2 356 1 338 323 285 346 52 51 38 40 54 60 46 40 49 42 12 31 188
138 141 143 108 45 36 51 55 51 51 41 16 36 16 358 348 353 32 66 64 65 69 21 36 10 48 332 353 20 13 341 351 354 334 247 274 45 55 62 56 112 70 62 40 343 206 162 169 180
167 162 135 77 51 50 50 48 46 43 40 60 61 45 28 25 54 66 63 50 55 58 34 25 18 5 332 333 347 336 329 334 335 269 243 276 96 150 148 151 147 89 96 92 147 146 157 166 172
115 166 104 71 56 70 58 46 46 47 56 57 68 64 33 59 62 63 55 48 61 67 53 355 16 16 22 352 344 303 348 3 343 229 185 156 148 144 150 142 104 109 117 134 131 139 156 161 159
197 87 194 47 68 69 63 47 56 66 69 58 70 59 66 79 64 62 54 54 68 65 59 40 33 44 35 34 53 353 2 330 255 220 220 187 167 161 137 139 118 108 136 143 147 155 157 157 157
111 22 15 67 88 60 73 59 68 69 54 74 79 86 102 90 85 75 82 69 65 84 84 52 26 4 34 233 224 324 346 248 208 180 177 171 168 158 130 124 158 150 164 164 162 159 149 148 151
99 124 124 74 65 61 83 78 69 64 86 39 220 106 97 100 97 91 87 88 89 84 91 77 188 178 199 203 181 175 178 169 164 170 175 162 156 146 145 211 162 178 179 172 167 158 153 157 150
293 359 40 284 354 55 78 88 87 95 89 65 66 68 96 106 110 105 99 91 102 89 102 80 125 150 156 171 176 175 172 171 176 176 179 173 178 191 172 176 161 169 167 162 160 157 160 156 150
324 5 33 317 333 65 58 99 167 103 94 80 103 101 106 111 115 114 124 124 109 102 109 132 143 149 149 157 162 177 181 173 181 183 178 183 170 158 173 160 149 152 160 151 151 152 157 174 176
7 3 329 311 330 305 59 300 145 145 250 80 114 111 113 122 129 122 118 123 101 129 131 142 126 155 160 163 170 174 174 177 182 190 187 189 179 180 190 196 190 173 176 174 165 160 179 174 179
23 42 275 292 285 303 93 131 148 104 224 91 106 121 129 132 131 118 89 117 145 138 123 137 135 155 154 166 172 179 191 186 191 187 204 203 203 202 195 208 201 203 195 181 179 177 189 185 164
43 261 241 253 266 276 52 103 157 53 87 106 114 119 129 136 138 126 141 156 143 142 132 92 120 158 177 190 180 189 192 200 195 202 219 215 215 216 237 240 220 211 204 199 202 205 201 193 190
61 21 308 284 252 237 185 96 25 342 94 116 126 128 121 137 139 145 158 151 137 131 117 93 111 189 193 192 185 194 194 205 212 221 216 220 224 255 253 243 220 221 217 212 211 210 198 196 181
53 76 297 230 227 250 237 249 236 170 129 130 136 135 143 144 155 162 169 172 130 135 127 122 136 264 207 208 202 204 213 217 225 221 218 223 226 231 235 229 230 232 221 227 233 232 217 211 164
76 356 179 251 166 248 304 209 186 189 160 151 153 143 151 144 158 166 165 151 129 140 140 137 181 227 213 216 213 216 229 224 224 222 221 234 226 225 235 239 236 230 229 235 239 237 237 228 170
345 3 24 35 89 122 93 110 73 106 169 164 161 162 159 156 163 154 156 154 141 144 148 158 178 213 212 219 220 216 219 221 222 221 223 232 234 232 234 235 242 235 232 233 250 241 263 217 178
294 311 336 360 55 72 154 73 239 242 231 151 150 170 170 173 155 169 169 153 155 153 144 155 169 190 206 214 214 209 207 220 221 223 232 234 237 232 238 241 246 241 234 241 246 237 226 210 227
286 308 350 353 32 73 84 108 66 19 152 148 150 170 180 171 176 169 186 168 160 159 150 155 162 174 200 219 216 213 221 222 233 238 234 233 239 239 246 250 242 255 243 221 242 250 239 220 231
292 297 332 337 23 34 204 98 156 160 130 165 172 210 205 198 186 162 167 171 168 164 158 144 156 166 205 220 225 226 232 226 223 227 223 233 239 244 254 253 246 250 257 227 261 269 255 239 229
278 303 320 350 352 332 287 329 9 86 145 160 168 189 201 203 197 188 152 168 166 166 158 134 145 159 198 227 220 221 209 210 220 228 235 239 241 252 259 267 275 264 266 278 293 286 265 247 269
291 307 323 325 308 303 359 280 334 357 45 152 179 186 203 205 215 161 152 138 172 152 157 131 137 151 168 213 212 221 217 224 228 238 247 240 253 253 274 289 301 275 278 278 259 271 286 272 252
330 321 316 315 297 324 338 284 328 330 303 328 352 164 191 211 214 253 277 310 306 142 151 133 145 148 163 179 212 218 226 229 229 235 235 237 240 272 287 295 295 294 273 268 255 274 292 243 242
304 298 297 300 284 297 322 293 287 327 329 325 318 314 303 301 184 229 275 189 223 145 157 140 148 157 169 176 213 219 221 223 234 235 232 236 246 249 356 257 263 269 274 278 266 271 251 233 240
284 277 275 291 289 310 320 295 307 323 328 322 317 311 305 304 304 189 270 176 252 214 220 153 149 162 160 178 190 219 227 230 235 235 238 238 242 251 287 293 257 252 243 247 263 244 238 252 245
296 273 298 291 301 284 306 312 322 336 329 318 310 311 310 305 298 285 235 271 258 261 257 236 162 155 165 171 177 194 218 225 231 241 247 239 250 258 265 257 253 243 237 240 246 244 240 243 235
271 308 301 308 287 288 315 301 295 323 327 317 310 315 310 304 301 297 285 275 262 260 251 247 244 254 164 180 157 189 203 210 221 247 244 253 262 260 261 253 267 256 245 238 242 250 246 247 245
293 291 285 282 290 283 289 303 324 318 340 334 326 333 328 319 300 290 290 281 262 258 254 250 245 248 251 261 227 164 163 203 215 242 251 253 262 262 265 266 254 262 257 251 247 260 255 249 253
272 257 255 272 301 298 286 289 342 342 338 340 342 339 344 333 326 302 296 284 270 258 257 255 252 251 250 252 259 260 183 167 173 251 254 261 267 267 266 264 262 254 272 271 262 272 265 261 261